[[{"header":{"parameterUnit":"m.s-1","parameterCategory":1,"la1":30.2991,"la2":30.254,"lo1":-89.0895,"lo2":-89.0444,"dy":0.0017,"dx":0.0017,"nx":28,"ny":28,"refTime":"2024-07-06T09:00:00:Z","depth":0,"parameterNumber":2,"parameterNumberName":"U-component_of_WINDS"},"data":[0,0,0,0,0,0,0,0,0,0,0,0,0,0,0,0,0,0,0,0,0,0,0,0,0,0,0,0,0,0,0,0,0,0,0,0,0,0,0,0,0,0,0,0,0,0,0,0,0,0,0,0,0,0,0,0,0,0,0.1141,0.1141,0,0.1207,0.1208,0.1209,0.1244,0.1244,0.1244,0.1244,0.1312,0.1313,0.1315,0,0,0,0,0,0,0,0,0,0,0,0,0,0.1042,0.1044,0.1141,0.1142,0.1142,0.1207,0.1208,0.1209,0.1244,0.1244,0.1244,0.1244,0.1311,0.1313,0.1315,0,0,0,0,0,0,0,0,0,0,0,0,0,0.1095,0.1045,0.1141,0.1168,0.1171,0.1207,0.1208,0.1209,0.1244,0.1244,0.1244,0.1244,0.131,0.1313,0.1316,0.1329,0,0,0.1323,0.1325,0,0,0,0,0,0,0,0,0.1092,0.1098,0.1163,0.1166,0.1169,0.1217,0.1198,0.1249,0.1244,0.1216,0.1244,0.1244,0.128,0.1285,0.1298,0.1333,0.1335,0.1324,0.1325,0.1326,0.1327,0,0,0,0,0,0,0,0.1088,0.1095,0.1167,0.1164,0.1168,0.1176,0.1184,0.1208,0.1247,0.1219,0.1221,0.1229,0.1282,0.1295,0.1299,0.1336,0.1324,0.1326,0.1327,0.1329,0.1385,0.1385,0,0,0,0,0,0,0.108,0.1092,0.1165,0.1169,0.113,0.1178,0.1186,0.1202,0.1247,0.1254,0.1229,0.123,0.129,0.1296,0.1302,0.132,0.1326,0.1329,0.133,0.1385,0.1385,0.1385,0,0,0,0,0,0,0.1078,0.1086,0.1162,0.1131,0.1142,0.1179,0.1197,0.1203,0.1216,0.1254,0.1261,0.1235,0.1291,0.1298,0.1322,0.1323,0.133,0.1332,0.1385,0.1385,0.1385,0.1358,0,0,0,0,0,0,0.1075,0.1085,0.1091,0.1131,0.1143,0.1182,0.1197,0.1204,0.1221,0.1223,0.1262,0.1268,0.1291,0.1318,0.1325,0.1327,0.1334,0.1385,0.1385,0.1385,0.1359,0.1357,0.1355,0,0,0,0,0,0.1071,0.1081,0.1092,0.11,0.1152,0.1182,0.1189,0.1215,0.1221,0.1227,0.1251,0.1267,0.1322,0.132,0.1328,0.1331,0.1385,0.1385,0.1385,0.1359,0.1357,0.1355,0,0,0,0,0,0,0.1041,0.1087,0.1099,0.1122,0.1148,0.1188,0.1196,0.1212,0.1236,0.1238,0.1269,0.1278,0.1298,0.1317,0.1314,0.1346,0.1355,0.1356,0.1333,0.1331,0.1329,0.1324,0.1336,0,0,0,0,0,0.1037,0.1058,0.1097,0.1114,0.1126,0.1159,0.1173,0.1191,0.1218,0.1229,0.1255,0.1281,0.1304,0.1319,0.1342,0.1361,0.137,0.1367,0.1365,0.1363,0.1364,0.1375,0.1374,0.1384,0.1384,0.1384,0,0,0.1029,0.1057,0.1068,0.1108,0.113,0.115,0.1168,0.1189,0.1204,0.1233,0.1257,0.1276,0.1307,0.1328,0.1339,0.1345,0.1363,0.1363,0.1362,0.1363,0.1374,0.1373,0.1372,0.1384,0.1384,0.1384,0,0,0.1025,0.1048,0.1064,0.1085,0.1118,0.114,0.1143,0.1181,0.1195,0.1219,0.1241,0.1259,0.1298,0.1319,0.1334,0.1336,0.1351,0.1343,0.1333,0.1343,0.1342,0.1341,0.1341,0.1341,0.1343,0.1343,0.1343,0,0.1011,0.1043,0.1071,0.109,0.1106,0.1133,0.1149,0.1168,0.1207,0.1217,0.1223,0.1271,0.1294,0.132,0.132,0.1332,0.1337,0.1339,0.134,0.134,0.1339,0.134,0.1339,0.1342,0.1342,0.1342,0.1342,0,0.1023,0.1045,0.1054,0.109,0.1107,0.1125,0.1155,0.1169,0.1185,0.1205,0.1229,0.1257,0.1286,0.1293,0.131,0.1321,0.1323,0.1334,0.1344,0.1337,0.1337,0.1338,0.134,0.1341,0.1341,0.1341,0,0,0.1003,0.1053,0.1056,0.1072,0.1109,0.1126,0.1144,0.1172,0.1183,0.1209,0.1224,0.1256,0.1265,0.1283,0.1301,0.131,0.1308,0.132,0.1321,0.1316,0.1321,0.1313,0.1312,0.1318,0.1318,0.1319,0.1318,0,0.1004,0.1038,0.1063,0.1087,0.1107,0.1131,0.1147,0.1171,0.119,0.1209,0.123,0.1252,0.1263,0.1274,0.1283,0.1306,0.131,0.1307,0.1332,0.1333,0.1324,0.1313,0.1304,0.1303,0.1319,0.1319,0.1319,0,0.101,0.1034,0.106,0.1094,0.1103,0.1116,0.1143,0.1161,0.1188,0.1202,0.122,0.1239,0.1258,0.1266,0.1292,0.1289,0.1301,0.1314,0.1314,0.1318,0.1325,0.1315,0.1303,0.1303,0.132,0.132,0.132,0,0.0992,0.103,0.1051,0.1064,0.1104,0.1113,0.113,0.1157,0.1172,0.1195,0.1204,0.1229,0.1243,0.1262,0.1286,0.129,0.1309,0.1319,0.132,0.132,0.1324,0.1323,0.1313,0.1332,0.1332,0.1332,0.1332,0,0.099,0.1005,0.1043,0.1056,0.1072,0.11,0.1116,0.1135,0.1158,0.1174,0.1197,0.1211,0.1243,0.1261,0.128,0.1298,0.1304,0.1315,0.132,0.1313,0.1311,0.1321,0.1322,0.1332,0.1332,0.1332,0.1332,0,0.0973,0.0999,0.1023,0.1058,0.1068,0.1078,0.1108,0.1121,0.1141,0.116,0.1166,0.1198,0.122,0.1246,0.1277,0.1289,0.1305,0.1313,0.1296,0.1299,0.1298,0.1298,0.1294,0.1294,0.1313,0.1312,0.1312,0,0.0971,0.0983,0.1019,0.1031,0.1047,0.1067,0.1082,0.1109,0.1123,0.1154,0.1162,0.1186,0.1206,0.124,0.1265,0.1288,0.1296,0.1293,0.13,0.1292,0.1295,0.1294,0.1295,0.1291,0.1291,0.1291,0.129,0,0.0963,0.0975,0.0996,0.102,0.1037,0.1058,0.1079,0.1088,0.1119,0.1134,0.1156,0.1172,0.1203,0.1226,0.1251,0.1268,0.1284,0.1288,0.1289,0.1282,0.1272,0.1276,0.1291,0.1288,0.1288,0.1288,0.1289,0.1289,0.0953,0.0964,0.0991,0.1013,0.1031,0.1051,0.1064,0.1085,0.1104,0.1131,0.1145,0.1167,0.1192,0.1229,0.1245,0.1262,0.1268,0.127,0.127,0.127,0.1268,0.1269,0.1267,0.1267,0.1267,0.1267,0.1267,0,0.0946,0.0964,0.0984,0.1013,0.1029,0.1042,0.1066,0.1079,0.1098,0.112,0.114,0.1165,0.1186,0.1212,0.1235,0.1244,0.1252,0.1249,0.1249,0.1252,0.1262,0.1258,0.1242,0.1242,0.1242,0.1242,0.1242,0.1242,0.0944,0.0963,0.0978,0.1006,0.1024,0.1045,0.1058,0.1075,0.1093,0.112,0.1138,0.1154,0.1178,0.1202,0.1222,0.1229,0.1237,0.1232,0.1241,0.1249,0.1251,0.1254,0.125,0.1233,0.1233,0.1229,0.1229,0.1229]},{"header":{"parameterUnit":"m.s-1","parameterCategory":1,"la1":30.2991,"la2":30.254,"lo1":-89.0895,"lo2":-89.0444,"dy":0.0017,"dx":0.0017,"nx":28,"ny":28,"refTime":"2024-07-06T09:00:00:Z","depth":0,"parameterNumber":3,"parameterNumberName":"V-component_of_WINDS"},"data":[0,0,0,0,0,0,0,0,0,0,0,0,0,0,0,0,0,0,0,0,0,0,0,0,0,0,0,0,0,0,0,0,0,0,0,0,0,0,0,0,0,0,0,0,0,0,0,0,0,0,0,0,0,0,0,0,0,0,4.7609,4.761,0,4.7722,4.7723,4.7725,4.7682,4.7679,4.7677,4.7674,4.7785,4.7791,4.7796,0,0,0,0,0,0,0,0,0,0,0,0,0,4.7348,4.7353,4.7609,4.761,4.7611,4.7722,4.7723,4.7725,4.7682,4.7679,4.7676,4.7673,4.7784,4.779,4.7796,0,0,0,0,0,0,0,0,0,0,0,0,0,4.7461,4.7355,4.7608,4.7603,4.7604,4.7722,4.7724,4.7725,4.7683,4.7679,4.7675,4.7671,4.7782,4.7789,4.7797,4.7925,0,0,4.7822,4.7825,0,0,0,0,0,0,0,0,4.7455,4.7471,4.7603,4.7604,4.7605,4.7684,4.7672,4.7792,4.7684,4.7653,4.7674,4.767,4.7754,4.7764,4.7794,4.793,4.7935,4.7823,4.7828,4.7831,4.7833,0,0,0,0,0,0,0,4.7447,4.7466,4.7653,4.7605,4.7606,4.7593,4.7605,4.7695,4.7724,4.7655,4.7652,4.7667,4.7754,4.7787,4.7796,4.7936,4.7822,4.783,4.7835,4.7838,4.8179,4.8183,0,0,0,0,0,0,4.744,4.746,4.765,4.7657,4.7519,4.7601,4.7614,4.7662,4.7723,4.7728,4.767,4.7664,4.7775,4.7787,4.78,4.7951,4.7831,4.7839,4.7843,4.8175,4.818,4.8184,0,0,0,0,0,0,4.7434,4.7457,4.7645,4.7557,4.758,4.761,4.7664,4.7667,4.7699,4.7734,4.7738,4.7698,4.7772,4.7789,4.7894,4.7954,4.7842,4.785,4.817,4.8176,4.8182,4.8255,0,0,0,0,0,0,4.7427,4.7455,4.7506,4.7559,4.7585,4.7739,4.7668,4.7672,4.7714,4.7707,4.7761,4.7767,4.777,4.7882,4.7902,4.7963,4.7856,4.8164,4.8173,4.818,4.8248,4.8263,4.8277,0,0,0,0,0,4.7418,4.7522,4.7509,4.7532,4.7649,4.7743,4.7757,4.7761,4.7719,4.7768,4.779,4.7765,4.7945,4.7893,4.7915,4.798,4.816,4.817,4.8179,4.8241,4.826,4.8277,0,0,0,0,0,0,4.7474,4.7529,4.7515,4.7639,4.7687,4.7735,4.7798,4.7782,4.7841,4.7833,4.7833,4.7845,4.7953,4.7977,4.7918,4.8105,4.8046,4.806,4.8085,4.8104,4.8118,4.8109,4.7863,0,0,0,0,0,4.7501,4.7574,4.7617,4.7723,4.7747,4.7769,4.781,4.7808,4.7857,4.7876,4.7906,4.7952,4.8019,4.8063,4.8126,4.8251,4.826,4.8306,4.8321,4.8333,4.8345,4.8409,4.8429,4.8215,4.8215,4.8215,0,0,4.7557,4.7596,4.7642,4.7735,4.7772,4.7845,4.7786,4.7867,4.792,4.7888,4.7988,4.8012,4.8063,4.8178,4.823,4.8201,4.8406,4.8345,4.8354,4.836,4.8421,4.8441,4.8459,4.8222,4.8221,4.822,0,0,4.7697,4.7735,4.7826,4.7864,4.792,4.7933,4.7955,4.8006,4.802,4.8122,4.8098,4.8161,4.8276,4.8313,4.8347,4.8498,4.8476,4.8519,4.8595,4.8658,4.8675,4.869,4.8741,4.876,4.8531,4.8531,4.8531,0,4.7759,4.7871,4.7874,4.7956,4.7996,4.7972,4.8062,4.8098,4.8171,4.8198,4.8166,4.8309,4.8342,4.8463,4.85,4.8529,4.8552,4.8512,4.8673,4.8687,4.8701,4.875,4.877,4.8536,4.8535,4.8535,4.8534,0,4.7943,4.802,4.8087,4.8159,4.8207,4.8293,4.8307,4.8354,4.8348,4.8364,4.8466,4.8504,4.8574,4.8603,4.8598,4.8723,4.8703,4.8672,4.8612,4.8726,4.8772,4.8791,4.8543,4.8541,4.8539,4.8538,0,0,4.8122,4.8194,4.8218,4.8249,4.8309,4.8368,4.8451,4.852,4.856,4.8611,4.8679,4.8776,4.8747,4.8785,4.8784,4.8839,4.8953,4.88,4.8802,4.8826,4.909,4.9112,4.9134,4.8939,4.8943,4.8946,4.9085,0,4.8264,4.8412,4.8417,4.8551,4.8621,4.8597,4.8669,4.8712,4.8729,4.8788,4.8806,4.8874,4.8831,4.8854,4.8908,4.8928,4.9006,4.8918,4.9,4.9003,4.8986,4.9159,4.9183,4.9313,4.9103,4.9106,4.9109,0,4.8451,4.8508,4.865,4.8697,4.8726,4.8791,4.8853,4.8912,4.8959,4.8967,4.9009,4.8999,4.9081,4.9019,4.9131,4.9071,4.9104,4.9119,4.9124,4.913,4.9062,4.9168,4.9355,4.9373,4.9137,4.9135,4.9133,0,4.8564,4.8676,4.8775,4.8803,4.8861,4.8907,4.8933,4.8976,4.9016,4.907,4.9096,4.9158,4.9192,4.9239,4.9245,4.92,4.9356,4.9296,4.9363,4.9362,4.9396,4.9393,4.9588,4.942,4.942,4.942,4.9419,0,4.8721,4.8808,4.8826,4.8887,4.8982,4.8986,4.9079,4.9101,4.914,4.9202,4.9185,4.9243,4.9248,4.9308,4.9312,4.9402,4.9418,4.9425,4.9425,4.9425,4.9424,4.9446,4.9437,4.9425,4.9424,4.9423,4.9422,0,4.8864,4.888,4.8985,4.9031,4.9045,4.9113,4.9151,4.9207,4.9222,4.9301,4.9319,4.9341,4.941,4.9421,4.9501,4.9504,4.9611,4.9603,4.9596,4.9594,4.9659,4.9652,4.9874,4.9902,4.9718,4.9719,4.9721,0,4.8963,4.9029,4.9082,4.9123,4.9152,4.9218,4.9259,4.9264,4.9307,4.9364,4.9413,4.948,4.9534,4.9645,4.9666,4.9727,4.9718,4.9792,4.9727,4.9725,4.9717,4.9712,4.9717,4.9804,4.9806,4.9808,4.9809,0,4.9136,4.914,4.9201,4.9264,4.9314,4.9363,4.941,4.9444,4.9454,4.9503,4.9574,4.9616,4.9698,4.9763,4.9823,4.9847,4.9829,4.9829,4.9847,4.9848,4.984,4.9843,4.9628,4.9824,4.9822,4.9821,4.982,4.982,4.9258,4.9314,4.936,4.9428,4.9463,4.9507,4.9562,4.9583,4.9642,4.971,4.9709,4.9785,4.9828,4.9906,4.9934,4.9993,4.9969,4.9996,5.0002,5.0008,5.0013,4.9833,5.0004,5.0003,5.0003,5.0003,5.0002,0,4.9428,4.9456,4.9518,4.9584,4.9636,4.9616,4.9666,4.9711,4.9779,4.9821,4.9874,4.9953,5.0017,5.0043,5.0105,5.0146,5.0139,5.0162,5.0158,5.0163,5.0033,5.001,5.0166,5.0166,5.0166,5.0166,5.0166,5.0166,4.9522,4.9617,4.9626,4.9736,4.9763,4.9839,4.9869,4.9908,4.9941,5.0031,5.0084,5.0101,5.0136,5.02,5.0256,5.0262,5.0284,5.031,5.0312,5.0189,5.0173,5.0157,5.0135,5.0315,5.0316,5.0437,5.0438,5.0439]}]]